De Bilt, Netherlands

10:19 AM CET on February 22, 2017 (GMT +0100)
De Bilt

Weather History for EHDB - April, 2014

Change the Weather History Date:

Wednesday, April 23, 2014

  Actual Average Record
Temperature  
Mean Temperature 56 °F -  
Max Temperature 70 °F 61 °F - ()
Min Temperature 41 °F 43 °F - ()
Degree Days  
Heating Degree Days 10    
Growing Degree Days 6 (Base 50)    
Moisture  
Dew Point 47 °F    
Average Humidity 71    
Maximum Humidity 100    
Minimum Humidity 31    
Precipitation  
Precipitation 0.00 in 0.08 in - ()
Sea Level Pressure  
Sea Level Pressure 30.08 in    
Wind  
Wind Speed 3 mph ()    
Max Wind Speed 9 mph    
Max Gust Speed -    
Visibility 8.2 miles    
Events Fog    
T = Trace of Precipitation, MM = Missing Value Source: Averaged Metar Reports

Daily Weather History Graph

Daily Weather History Graph

Search for Another Location

Airport or City:

Trip Planner

Search our weather history database for the weather conditions in past years. The results will help you decide how hot, cold, wet, or windy it might be!

Date:

Astronomy

Apr. 23, 2014 Rise Set
Actual Time 6:25 AM CEST 8:50 PM CEST
Civil Twilight 5:48 AM CEST 9:28 PM CEST
Nautical Twilight 5:01 AM CEST 10:15 PM CEST
Astronomical Twilight 4:05 AM CEST 11:12 PM CEST
Moon 3:34 AM CEST (4/23) 1:56 PM CEST (4/23)
Length of Visible Light 15h 39m
Length of Day
14h 24m
Last Quarter, 38% of the Moon is Illuminated
Apr 23
Last Quarter
Apr 29
New
May 7
First Quarter
May 14
Full
May 21
Last Quarter

Hourly Weather History & Observations

Time (CEST) Temp. Dew Point Humidity Pressure Visibility Wind Dir Wind Speed Gust Speed Precip Events Conditions
12:00 AM 47 °F 46 °F 96% 30.01 in 12 mi East 2.2 mph - -  
1:00 AM 45 °F 45 °F 100% 30.02 in 6 mi East 2.2 mph - -   Mist
2:00 AM 44 °F 44 °F 98% 30.03 in 0 mi East 2.2 mph - - Fog Fog
3:00 AM 44 °F 43 °F 97% 30.04 in 1 mi ENE 2.2 mph - - Fog Fog
4:00 AM 43 °F 42 °F 96% 30.05 in 1 mi South 4.5 mph - - Fog Fog
5:00 AM 43 °F 42 °F 97% 30.05 in 1 mi SSE 2.2 mph - - Fog Fog
6:00 AM 41 °F 41 °F 100% 30.05 in 1 mi Calm Calm - - Fog Fog
7:00 AM 43 °F 42 °F 94% 30.07 in 3 mi South 4.5 mph - - Fog Fog
8:00 AM 49 °F 47 °F 91% 30.08 in 4 mi SE 2.2 mph - -   Mist
9:00 AM 53 °F 49 °F 82% 30.09 in 4 mi ESE 4.5 mph - -   Mist
10:00 AM 57 °F 50 °F 72% 30.10 in 6 mi ESE 4.5 mph - -   Mist
11:00 AM 59 °F 51 °F 66% 30.11 in 7 mi SSE 4.5 mph - -   Scattered Clouds
12:00 PM 62 °F 52 °F 60% 30.12 in 7 mi South 4.5 mph - -   Mostly Cloudy
1:00 PM 65 °F 50 °F 48% 30.11 in 12 mi SSE 6.7 mph - -   Scattered Clouds
2:00 PM 66 °F 49 °F 43% 30.10 in 14 mi SSW 8.9 mph - -   Partly Cloudy
3:00 PM 67 °F 48 °F 39% 30.10 in 11 mi SSW 6.7 mph - -   Scattered Clouds
4:00 PM 69 °F 46 °F 33% 30.09 in 19 mi SW 4.5 mph - -   Scattered Clouds
5:00 PM 69 °F 45 °F 31% 30.08 in 17 mi South 4.5 mph - -   Scattered Clouds
6:00 PM 67 °F 49 °F 42% 30.08 in 19 mi NNW 4.5 mph - -   Scattered Clouds
7:00 PM 66 °F 50 °F 45% 30.08 in 19 mi NNE 4.5 mph - -   Scattered Clouds
8:00 PM 63 °F 51 °F 56% 30.09 in 9 mi NE 4.5 mph - -   Partly Cloudy
9:00 PM 60 °F 53 °F 70% 30.11 in 8 mi North 2.2 mph - -   Scattered Clouds
10:00 PM 58 °F 50 °F 68% 30.12 in 9 mi NE 6.7 mph - -   Scattered Clouds
11:00 PM 55 °F 49 °F 75% 30.12 in 7 mi ENE 4.5 mph - -   Scattered Clouds